Zurück zum Katalog

STARLINK-1573

AktivKommunikationVLEO
NORAD 46061·PAYLOAD·🇺🇸 United States

Gestartet Aug 7, 2020 von Cape Canaveral Space Force Station

Loading…

Nächste Überflüge (nächste 24 Stunden)

TLE

AktuellSource: CelesTrak SupGP

Epoche: Sep 15, 2026, 01:24 UTC

1 46061C 20055AL  26258.05881944  .00045150  00000+0  14516-2 0  2582
2 46061  53.1595 312.6098 0001160  87.7870 113.0008 15.31685780    19

Verfolge STARLINK-1573 in Echtzeit mit AllMySat

Download on the App Store